• In Russia
  • List of Countries
  • For 7 days
  • Water Temperature
  • Satellite Maps
  • Weather Map
  • Weather Widgets
  • user-avatar
    Login

    Hourly Weather Vratsa

    Today, 20 July, Saturday

    Time Temperature Precipitation Wind Pressure Humidity
    00:00 +19°C° 0 mm 1 mps 710 mmHg 68%
    01:00 +19°C° 0 mm 1 mps 710 mmHg 68%
    02:00 +18°C° 0 mm 1 mps 710 mmHg 67%
    03:00 +18°C° 0 mm 1 mps 711 mmHg 69%
    04:00 +16°C° 0 mm 1 mps 711 mmHg 70%
    05:00 +16°C° 0 mm 1 mps 711 mmHg 72%
    06:00 +19°C° 0 mm 1 mps 711 mmHg 69%
    07:00 +20°C° 0 mm 1 mps 711 mmHg 65%
    08:00 +22°C° 0 mm 1 mps 712 mmHg 62%
    09:00 +24°C° 0 mm 1 mps 712 mmHg 57%
    10:00 +25°C° 0 mm 1 mps 712 mmHg 52%
    11:00 +27°C° 0 mm 1 mps 713 mmHg 48%
    12:00 +27°C° 0.1 mm 1 mps 712 mmHg 47%
    13:00 +28°C° 0.1 mm 1 mps 712 mmHg 45%
    14:00 +29°C° 0.1 mm 1 mps 712 mmHg 44%
    15:00 +29°C° 0.1 mm 1 mps 712 mmHg 44%
    16:00 +28°C° 0.1 mm 1 mps 712 mmHg 43%
    17:00 +28°C° 0.1 mm 1 mps 712 mmHg 43%
    18:00 +26°C° 0 mm 1 mps 711 mmHg 49%
    19:00 +25°C° 0 mm 1 mps 711 mmHg 55%
    20:00 +23°C° 0 mm 1 mps 711 mmHg 61%
    21:00 +22°C° 0 mm 1 mps 711 mmHg 63%
    22:00 +21°C° 0 mm 1 mps 712 mmHg 64%
    23:00 +21°C° 0 mm 1 mps 712 mmHg 65%

    Tomorrow, 21 July, Sunday

    Time Temperature Precipitation Wind Pressure Humidity
    00:00 +20°C° 0 mm 1 mps 712 mmHg 65%
    01:00 +20°C° 0 mm 1 mps 712 mmHg 66%
    02:00 +20°C° 0 mm 1 mps 712 mmHg 66%
    03:00 +19°C° 0 mm 1 mps 712 mmHg 67%
    04:00 +19°C° 0 mm 1 mps 711 mmHg 68%
    05:00 +18°C° 0 mm 1 mps 711 mmHg 69%
    06:00 +20°C° 0 mm 1 mps 712 mmHg 65%
    07:00 +22°C° 0 mm 1 mps 712 mmHg 61%
    08:00 +24°C° 0 mm 1 mps 712 mmHg 57%
    09:00 +26°C° 0 mm 1 mps 713 mmHg 52%
    10:00 +27°C° 0 mm 1 mps 713 mmHg 48%
    11:00 +29°C° 0 mm 1 mps 713 mmHg 43%
    12:00 +30°C° 0 mm 1 mps 713 mmHg 41%
    13:00 +30°C° 0 mm 1 mps 713 mmHg 39%
    14:00 +31°C° 0 mm 1 mps 713 mmHg 36%
    15:00 +31°C° 0 mm 1 mps 712 mmHg 37%
    16:00 +30°C° 0 mm 1 mps 712 mmHg 37%
    17:00 +30°C° 0 mm 1 mps 712 mmHg 37%
    18:00 +28°C° 0 mm 1 mps 712 mmHg 43%
    19:00 +26°C° 0 mm 1 mps 712 mmHg 48%
    20:00 +24°C° 0 mm 1 mps 711 mmHg 54%
    21:00 +23°C° 0 mm 1 mps 712 mmHg 54%
    22:00 +23°C° 0 mm 1 mps 712 mmHg 55%
    23:00 +22°C° 0 mm 1 mps 712 mmHg 55%

    Day after tomorrow, 22 July, Monday

    Time Temperature Precipitation Wind Pressure Humidity
    00:00 +22°C° 0 mm 1 mps 712 mmHg 55%
    01:00 +22°C° 0 mm 1 mps 712 mmHg 55%
    02:00 +21°C° 0 mm 1 mps 712 mmHg 55%
    03:00 +21°C° 0 mm 1 mps 712 mmHg 56%
    04:00 +21°C° 0 mm 1 mps 712 mmHg 58%
    05:00 +20°C° 0 mm 1 mps 712 mmHg 60%
    06:00 +22°C° 0 mm 1 mps 712 mmHg 58%
    07:00 +24°C° 0 mm 1 mps 712 mmHg 56%
    08:00 +25°C° 0 mm 1 mps 712 mmHg 54%
    09:00 +27°C° 0 mm 2 mps 713 mmHg 49%
    10:00 +28°C° 0 mm 2 mps 713 mmHg 45%
    11:00 +30°C° 0 mm 3 mps 713 mmHg 41%
    12:00 +30°C° 0 mm 3 mps 713 mmHg 40%
    13:00 +31°C° 0 mm 3 mps 712 mmHg 38%
    14:00 +33°C° 0 mm 3 mps 712 mmHg 37%
    15:00 +31°C° 0 mm 3 mps 712 mmHg 41%
    16:00 +30°C° 0 mm 4 mps 711 mmHg 44%
    17:00 +29°C° 0 mm 4 mps 711 mmHg 48%
    18:00 +28°C° 0.2 mm 4 mps 711 mmHg 54%
    19:00 +26°C° 0.2 mm 4 mps 711 mmHg 60%
    20:00 +23°C° 0.2 mm 4 mps 711 mmHg 66%
    21:00 +22°C° 0.1 mm 4 mps 711 mmHg 67%
    22:00 +21°C° 0.1 mm 3 mps 711 mmHg 69%
    23:00 +21°C° 0.1 mm 3 mps 712 mmHg 70%

    23 July, Tuesday

    Time Temperature Precipitation Wind Pressure Humidity
    00:00 +20°C° 0 mm 3 mps 711 mmHg 69%
    01:00 +19°C° 0 mm 3 mps 711 mmHg 69%
    02:00 +19°C° 0 mm 2 mps 711 mmHg 68%
    03:00 +18°C° 0 mm 2 mps 711 mmHg 69%
    04:00 +18°C° 0 mm 2 mps 711 mmHg 69%
    05:00 +17°C° 0 mm 2 mps 711 mmHg 70%
    06:00 +18°C° 0 mm 2 mps 711 mmHg 69%
    07:00 +19°C° 0 mm 3 mps 711 mmHg 69%
    08:00 +21°C° 0 mm 3 mps 711 mmHg 68%
    09:00 +21°C° 0.3 mm 3 mps 711 mmHg 65%
    10:00 +22°C° 0.3 mm 3 mps 711 mmHg 63%
    11:00 +24°C° 0.3 mm 3 mps 711 mmHg 61%
    12:00 +25°C° 0.3 mm 3 mps 711 mmHg 57%
    13:00 +26°C° 0.3 mm 3 mps 710 mmHg 53%
    14:00 +27°C° 0.3 mm 3 mps 710 mmHg 49%
    15:00 +26°C° 0.1 mm 3 mps 710 mmHg 50%
    16:00 +26°C° 0.1 mm 3 mps 709 mmHg 52%
    17:00 +25°C° 0.1 mm 3 mps 709 mmHg 53%
    18:00 +24°C° 0.2 mm 3 mps 709 mmHg 59%
    19:00 +21°C° 0.2 mm 2 mps 709 mmHg 64%
    20:00 +21°C° 0.2 mm 1 mps 709 mmHg 70%
    21:00 +20°C° 0.1 mm 2 mps 709 mmHg 69%
    22:00 +19°C° 0.1 mm 2 mps 710 mmHg 68%
    23:00 +19°C° 0.1 mm 3 mps 710 mmHg 66%

    24 July, Wednesday

    Time Temperature Precipitation Wind Pressure Humidity
    00:00 +18°C° 0 mm 2 mps 710 mmHg 68%
    01:00 +17°C° 0 mm 2 mps 710 mmHg 69%
    02:00 +17°C° 0 mm 2 mps 709 mmHg 71%
    03:00 +16°C° 0 mm 2 mps 709 mmHg 71%
    04:00 +16°C° 0 mm 2 mps 709 mmHg 72%
    05:00 +15°C° 0 mm 2 mps 709 mmHg 73%
    06:00 +17°C° 0 mm 2 mps 709 mmHg 69%
    07:00 +18°C° 0 mm 2 mps 709 mmHg 66%
    08:00 +20°C° 0 mm 2 mps 710 mmHg 62%
    09:00 +21°C° 0 mm 2 mps 710 mmHg 57%
    10:00 +24°C° 0 mm 2 mps 710 mmHg 53%
    11:00 +25°C° 0 mm 3 mps 710 mmHg 48%
    12:00 +26°C° 0 mm 3 mps 710 mmHg 45%
    13:00 +27°C° 0 mm 3 mps 710 mmHg 41%
    14:00 +28°C° 0 mm 3 mps 709 mmHg 38%
    15:00 +28°C° 0 mm 3 mps 709 mmHg 37%
    16:00 +28°C° 0 mm 2 mps 709 mmHg 36%
    17:00 +28°C° 0 mm 2 mps 709 mmHg 35%
    18:00 +26°C° 0 mm 2 mps 709 mmHg 41%
    19:00 +24°C° 0 mm 2 mps 709 mmHg 47%
    20:00 +22°C° 0 mm 1 mps 709 mmHg 53%
    21:00 +21°C° 0 mm 2 mps 709 mmHg 55%
    22:00 +20°C° 0 mm 2 mps 710 mmHg 56%
    23:00 +20°C° 0 mm 2 mps 710 mmHg 58%

    25 July, Thursday

    Time Temperature Precipitation Wind Pressure Humidity
    00:00 +19°C° 0 mm 2 mps 710 mmHg 60%
    01:00 +19°C° 0 mm 2 mps 710 mmHg 62%
    02:00 +18°C° 0 mm 2 mps 710 mmHg 64%
    03:00 +18°C° 0 mm 2 mps 710 mmHg 67%
    04:00 +19°C° 0 mm 1 mps 710 mmHg 70%
    05:00 +18°C° 0 mm 1 mps 710 mmHg 73%
    06:00 +19°C° 0 mm 2 mps 710 mmHg 70%
    07:00 +20°C° 0 mm 2 mps 710 mmHg 67%
    08:00 +23°C° 0 mm 2 mps 711 mmHg 64%
    09:00 +24°C° 0 mm 2 mps 711 mmHg 60%
    10:00 +26°C° 0 mm 2 mps 711 mmHg 55%
    11:00 +27°C° 0 mm 2 mps 711 mmHg 51%
    12:00 +28°C° 0 mm 2 mps 711 mmHg 48%
    13:00 +28°C° 0 mm 2 mps 711 mmHg 46%
    14:00 +29°C° 0 mm 2 mps 711 mmHg 44%
    15:00 +29°C° 0 mm 1 mps 711 mmHg 45%
    16:00 +29°C° 0 mm 1 mps 711 mmHg 46%
    17:00 +28°C° 0 mm 1 mps 711 mmHg 47%
    18:00 +27°C° 0 mm 1 mps 711 mmHg 51%
    19:00 +25°C° 0 mm 1 mps 710 mmHg 56%
    20:00 +21°C° 0 mm 0 mps 710 mmHg 60%
    21:00 +22°C° 0 mm 1 mps 711 mmHg 62%
    22:00 +22°C° 0 mm 1 mps 711 mmHg 63%
    23:00 +21°C° 0 mm 1 mps 711 mmHg 64%
    Show more